Time,TemperatureF,DewpointF,PressureIn,WindDirection,WindDirectionDegrees,WindSpeedMPH,WindSpeedGustMPH,Humidity,HourlyPrecipIn,Conditions,Clouds,dailyrainin,SoftwareType,DateUTC
2013-01-28 00:13:00,21.8,5.0,30.43,NNW,332,0.0,1.0,48,0.00,,,0.01,weatherlink.com 1.10,2013-01-28 05:13:00,
2013-01-28 00:29:00,21.4,4.0,30.43,NNW,328,0.0,1.0,48,0.00,,,0.00,weatherlink.com 1.10,2013-01-28 05:29:00,
2013-01-28 00:43:00,21.0,5.0,30.43,NNW,327,0.0,0.0,50,0.00,,,0.00,weatherlink.com 1.10,2013-01-28 05:43:00,
2013-01-28 00:58:00,20.4,4.0,30.42,NW,326,0.0,0.0,50,0.00,,,0.00,weatherlink.com 1.10,2013-01-28 05:58:00,
2013-01-28 01:13:00,19.5,5.0,30.42,NW,326,0.0,0.0,54,0.00,,,0.00,weatherlink.com 1.10,2013-01-28 06:13:00,
2013-01-28 01:28:00,18.6,6.0,30.42,NW,326,0.0,0.0,57,0.00,,,0.00,weatherlink.com 1.10,2013-01-28 06:28:00,
2013-01-28 01:44:00,18.0,5.0,30.42,NNW,327,0.0,0.0,57,0.00,,,0.00,weatherlink.com 1.10,2013-01-28 06:44:00,
2013-01-28 01:59:00,18.3,5.0,30.43,NW,326,1.0,1.0,56,0.00,,,0.00,weatherlink.com 1.10,2013-01-28 06:59:00,
2013-01-28 02:14:00,19.1,5.0,30.42,WNW,298,0.0,0.0,54,0.00,,,0.00,weatherlink.com 1.10,2013-01-28 07:14:00,
2013-01-28 02:29:00,18.9,5.0,30.43,WNW,298,0.0,2.0,55,0.00,,,0.00,weatherlink.com 1.10,2013-01-28 07:29:00,
2013-01-28 02:44:00,18.6,6.0,30.42,WNW,298,0.0,0.0,57,0.00,,,0.00,weatherlink.com 1.10,2013-01-28 07:44:00,
2013-01-28 02:59:00,19.1,6.0,30.41,WNW,298,0.0,0.0,56,0.00,,,0.00,weatherlink.com 1.10,2013-01-28 07:59:00,
2013-01-28 03:14:00,18.7,6.0,30.41,WNW,298,0.0,0.0,58,0.00,,,0.00,weatherlink.com 1.10,2013-01-28 08:14:00,
2013-01-28 03:29:00,18.6,7.0,30.42,WNW,298,0.0,1.0,60,0.00,,,0.00,weatherlink.com 1.10,2013-01-28 08:29:00,
2013-01-28 03:44:00,18.2,7.0,30.42,WNW,298,0.0,0.0,61,0.00,,,0.00,weatherlink.com 1.10,2013-01-28 08:44:00,
2013-01-28 03:59:00,18.3,7.0,30.41,WNW,298,0.0,0.0,61,0.00,,,0.00,weatherlink.com 1.10,2013-01-28 08:59:00,
2013-01-28 04:14:00,18.0,7.0,30.41,WNW,298,0.0,0.0,62,0.00,,,0.00,weatherlink.com 1.10,2013-01-28 09:14:00,
2013-01-28 04:29:00,17.7,8.0,30.40,WNW,298,0.0,0.0,65,0.00,,,0.00,weatherlink.com 1.10,2013-01-28 09:29:00,
2013-01-28 04:44:00,17.9,8.0,30.40,WNW,298,0.0,0.0,66,0.00,,,0.00,weatherlink.com 1.10,2013-01-28 09:44:00,
2013-01-28 04:59:00,17.8,9.0,30.40,WNW,298,0.0,0.0,67,0.00,,,0.00,weatherlink.com 1.10,2013-01-28 09:59:00,
2013-01-28 05:14:00,17.8,9.0,30.40,WNW,298,0.0,0.0,69,0.00,,,0.00,weatherlink.com 1.10,2013-01-28 10:14:00,
2013-01-28 05:29:00,17.9,9.0,30.40,WNW,298,0.0,0.0,69,0.00,,,0.00,weatherlink.com 1.10,2013-01-28 10:29:00,
2013-01-28 05:44:00,18.3,9.0,30.40,WNW,298,0.0,0.0,67,0.00,,,0.00,weatherlink.com 1.10,2013-01-28 10:44:00,
2013-01-28 05:59:00,18.4,9.0,30.40,WNW,298,0.0,0.0,66,0.00,,,0.00,weatherlink.com 1.10,2013-01-28 10:59:00,
2013-01-28 06:14:00,18.4,9.0,30.40,WNW,298,0.0,0.0,67,0.00,,,0.00,weatherlink.com 1.10,2013-01-28 11:14:00,
2013-01-28 06:29:00,18.6,9.0,30.39,WNW,298,0.0,0.0,67,0.00,,,0.00,weatherlink.com 1.10,2013-01-28 11:29:00,
2013-01-28 06:44:00,19.0,10.0,30.39,WNW,298,0.0,0.0,67,0.00,,,0.00,weatherlink.com 1.10,2013-01-28 11:44:00,
2013-01-28 06:59:00,19.6,10.0,30.39,WNW,297,0.0,0.0,67,0.00,,,0.00,weatherlink.com 1.10,2013-01-28 11:59:00,
2013-01-28 07:14:00,20.1,11.0,30.39,WNW,298,0.0,0.0,67,0.00,,,0.00,weatherlink.com 1.10,2013-01-28 12:14:00,
2013-01-28 07:29:00,20.3,11.0,30.40,WNW,298,0.0,0.0,66,0.00,,,0.00,weatherlink.com 1.10,2013-01-28 12:29:00,
2013-01-28 07:44:00,20.6,10.0,30.39,WNW,298,0.0,0.0,65,0.00,,,0.00,weatherlink.com 1.10,2013-01-28 12:44:00,
2013-01-28 07:59:00,21.5,11.0,30.39,WNW,298,0.0,0.0,65,0.00,,,0.00,weatherlink.com 1.10,2013-01-28 12:59:00,
2013-01-28 08:14:00,22.6,12.0,30.39,WNW,298,0.0,0.0,63,0.00,,,0.00,weatherlink.com 1.10,2013-01-28 13:14:00,
2013-01-28 08:29:00,23.7,11.0,30.39,WNW,298,0.0,0.0,59,0.00,,,0.00,weatherlink.com 1.10,2013-01-28 13:29:00,
2013-01-28 08:44:00,24.6,10.0,30.39,WNW,298,0.0,0.0,53,0.00,,,0.00,weatherlink.com 1.10,2013-01-28 13:44:00,
2013-01-28 09:00:00,25.6,10.0,30.39,WNW,298,0.0,0.0,52,0.00,,,0.00,weatherlink.com 1.10,2013-01-28 14:00:00,
2013-01-28 09:14:00,26.5,10.0,30.39,WNW,298,0.0,1.0,49,0.00,,,0.00,weatherlink.com 1.10,2013-01-28 14:14:00,
2013-01-28 09:29:00,27.6,10.0,30.38,WNW,298,0.0,0.0,48,0.00,,,0.00,weatherlink.com 1.10,2013-01-28 14:29:00,
2013-01-28 09:45:00,28.9,9.0,30.38,SW,221,0.0,2.0,43,0.00,,,0.00,weatherlink.com 1.10,2013-01-28 14:45:00,
2013-01-28 09:59:00,30.3,9.0,30.38,SE,135,0.0,1.0,41,0.00,,,0.00,weatherlink.com 1.10,2013-01-28 14:59:00,
2013-01-28 10:14:00,30.4,10.0,30.38,SSW,207,2.0,3.0,43,0.00,,,0.00,weatherlink.com 1.10,2013-01-28 15:14:00,
2013-01-28 10:29:00,30.1,11.0,30.37,South,184,0.0,4.0,46,0.00,,,0.00,weatherlink.com 1.10,2013-01-28 15:29:00,
2013-01-28 10:44:00,30.9,12.0,30.37,South,189,0.0,4.0,46,0.00,,,0.00,weatherlink.com 1.10,2013-01-28 15:44:00,
2013-01-28 11:00:00,31.6,13.0,30.36,SSW,203,0.0,3.0,46,0.00,,,0.00,weatherlink.com 1.10,2013-01-28 16:00:00,
2013-01-28 11:15:00,31.7,13.0,30.35,SSW,212,1.0,4.0,46,0.00,,,0.00,weatherlink.com 1.10,2013-01-28 16:15:00,
2013-01-28 11:30:00,31.7,13.0,30.34,South,190,0.0,5.0,46,0.00,,,0.00,weatherlink.com 1.10,2013-01-28 16:30:00,
2013-01-28 11:45:00,32.2,12.0,30.32,South,191,1.0,4.0,44,0.00,,,0.00,weatherlink.com 1.10,2013-01-28 16:45:00,
2013-01-28 12:00:00,32.3,13.0,30.32,West,272,0.0,5.0,46,0.00,,,0.00,weatherlink.com 1.10,2013-01-28 17:00:00,
2013-01-28 12:15:00,32.2,14.0,30.29,SSW,209,3.0,3.0,48,0.00,,,0.00,weatherlink.com 1.10,2013-01-28 17:15:00,
2013-01-28 12:45:00,32.6,15.0,30.27,SSW,212,2.0,6.0,49,0.00,,,0.00,weatherlink.com 1.10,2013-01-28 17:45:00,
2013-01-28 13:00:00,33.4,16.0,30.27,West,264,0.0,5.0,50,0.00,,,0.00,weatherlink.com 1.10,2013-01-28 18:00:00,
2013-01-28 13:15:00,33.4,16.0,30.25,WSW,237,2.0,5.0,50,0.00,,,0.00,weatherlink.com 1.10,2013-01-28 18:15:00,
2013-01-28 13:30:00,33.5,17.0,30.24,West,279,0.0,9.0,52,0.00,,,0.00,weatherlink.com 1.10,2013-01-28 18:30:00,
2013-01-28 13:45:00,33.4,19.0,30.23,West,269,0.0,3.0,55,0.00,,,0.00,weatherlink.com 1.10,2013-01-28 18:45:00,
2013-01-28 14:00:00,32.6,22.0,30.22,WSW,241,0.0,5.0,65,0.00,,,0.00,weatherlink.com 1.10,2013-01-28 19:00:00,
2013-01-28 14:15:00,32.1,23.0,30.21,West,279,1.0,6.0,70,0.00,,,0.00,weatherlink.com 1.10,2013-01-28 19:15:00,
2013-01-28 14:30:00,31.6,25.0,30.21,SSW,207,0.0,4.0,76,0.00,,,0.00,weatherlink.com 1.10,2013-01-28 19:30:00,
2013-01-28 14:45:00,31.0,25.0,30.20,West,268,0.0,3.0,79,0.00,,,0.00,weatherlink.com 1.10,2013-01-28 19:45:00,
2013-01-28 15:00:00,30.8,26.0,30.19,WSW,244,0.0,2.0,83,0.00,,,0.00,weatherlink.com 1.10,2013-01-28 20:00:00,
2013-01-28 15:15:00,30.5,27.0,30.18,WSW,245,0.0,2.0,86,0.00,,,0.00,weatherlink.com 1.10,2013-01-28 20:15:00,
2013-01-28 15:30:00,30.5,27.0,30.15,ESE,109,0.0,2.0,88,0.00,,,0.00,weatherlink.com 1.10,2013-01-28 20:30:00,
2013-01-28 15:45:00,30.5,27.0,30.14,SE,140,0.0,2.0,88,0.00,,,0.00,weatherlink.com 1.10,2013-01-28 20:45:00,
2013-01-28 16:00:00,30.5,28.0,30.13,ESE,112,0.0,2.0,89,0.00,,,0.00,weatherlink.com 1.10,2013-01-28 21:00:00,
2013-01-28 16:15:00,30.4,28.0,30.13,ESE,112,0.0,3.0,89,0.00,,,0.00,weatherlink.com 1.10,2013-01-28 21:15:00,
2013-01-28 16:30:00,30.5,28.0,30.14,ESE,112,0.0,1.0,90,0.00,,,0.00,weatherlink.com 1.10,2013-01-28 21:30:00,
2013-01-28 16:46:00,30.6,28.0,30.12,ESE,112,0.0,1.0,90,0.00,,,0.00,weatherlink.com 1.10,2013-01-28 21:46:00,
2013-01-28 17:00:00,30.6,28.0,30.12,ESE,112,0.0,3.0,91,0.00,,,0.00,weatherlink.com 1.10,2013-01-28 22:00:00,
2013-01-28 17:16:00,30.7,28.0,30.12,ESE,112,1.0,2.0,91,0.00,,,0.00,weatherlink.com 1.10,2013-01-28 22:16:00,
2013-01-28 17:31:00,30.8,29.0,30.11,ESE,106,1.0,2.0,91,0.00,,,0.00,weatherlink.com 1.10,2013-01-28 22:31:00,
2013-01-28 17:46:00,30.6,29.0,30.10,East,87,3.0,5.0,92,0.00,,,0.00,weatherlink.com 1.10,2013-01-28 22:46:00,
2013-01-28 18:01:00,30.5,29.0,30.09,East,98,1.0,4.0,92,0.00,,,0.00,weatherlink.com 1.10,2013-01-28 23:01:00,
2013-01-28 18:16:00,30.4,28.0,30.08,ESE,120,4.0,7.0,92,0.00,,,0.00,weatherlink.com 1.10,2013-01-28 23:16:00,
2013-01-28 18:31:00,30.1,28.0,30.08,East,94,7.0,10.0,93,0.00,,,0.00,weatherlink.com 1.10,2013-01-28 23:31:00,
2013-01-28 18:46:00,29.7,28.0,30.06,ESE,105,2.0,7.0,93,0.00,,,0.00,weatherlink.com 1.10,2013-01-28 23:46:00,
2013-01-28 19:01:00,29.7,28.0,30.06,East,96,3.0,7.0,93,0.00,,,0.00,weatherlink.com 1.10,2013-01-29 00:01:00,
2013-01-28 19:16:00,30.1,29.0,30.06,ESE,103,3.0,6.0,94,0.00,,,0.00,weatherlink.com 1.10,2013-01-29 00:16:00,
2013-01-28 19:31:00,30.7,29.0,30.05,ESE,104,2.0,6.0,94,0.00,,,0.00,weatherlink.com 1.10,2013-01-29 00:31:00,
2013-01-28 19:46:00,31.1,30.0,30.04,ESE,116,0.0,7.0,94,0.00,,,0.00,weatherlink.com 1.10,2013-01-29 00:46:00,
2013-01-28 20:01:00,31.2,30.0,30.03,ESE,107,5.0,7.0,95,0.00,,,0.00,weatherlink.com 1.10,2013-01-29 01:01:00,
2013-01-28 20:16:00,31.3,30.0,30.02,East,89,3.0,7.0,95,0.00,,,0.00,weatherlink.com 1.10,2013-01-29 01:16:00,
2013-01-28 20:31:00,31.3,30.0,30.02,East,91,3.0,7.0,94,0.00,,,0.00,weatherlink.com 1.10,2013-01-29 01:31:00,
2013-01-28 20:46:00,31.3,30.0,30.02,East,79,2.0,6.0,95,0.00,,,0.00,weatherlink.com 1.10,2013-01-29 01:46:00,
2013-01-28 21:01:00,31.5,30.0,30.02,East,89,2.0,3.0,95,0.00,,,0.00,weatherlink.com 1.10,2013-01-29 02:01:00,
2013-01-28 21:16:00,31.7,31.0,30.00,East,86,1.0,3.0,95,0.00,,,0.00,weatherlink.com 1.10,2013-01-29 02:16:00,
2013-01-28 21:31:00,31.8,31.0,29.99,ENE,78,2.0,4.0,95,0.00,,,0.00,weatherlink.com 1.10,2013-01-29 02:31:00,
2013-01-28 21:46:00,31.9,31.0,29.98,SE,124,3.0,4.0,95,0.00,,,0.00,weatherlink.com 1.10,2013-01-29 02:46:00,
2013-01-28 22:01:00,32.1,31.0,29.99,East,87,2.0,3.0,95,0.00,,,0.00,weatherlink.com 1.10,2013-01-29 03:01:00,
2013-01-28 22:16:00,32.3,31.0,29.98,East,89,0.0,2.0,95,0.00,,,0.00,weatherlink.com 1.10,2013-01-29 03:16:00,
2013-01-28 22:31:00,32.4,31.0,29.98,East,89,0.0,0.0,95,0.00,,,0.00,weatherlink.com 1.10,2013-01-29 03:31:00,
2013-01-28 22:46:00,32.4,31.0,29.98,East,84,0.0,0.0,95,0.00,,,0.00,weatherlink.com 1.10,2013-01-29 03:46:00,
2013-01-28 23:01:00,32.5,31.0,29.98,East,84,0.0,0.0,95,0.00,,,0.00,weatherlink.com 1.10,2013-01-29 04:01:00,
2013-01-28 23:16:00,32.5,31.0,29.98,East,84,0.0,0.0,95,0.00,,,0.00,weatherlink.com 1.10,2013-01-29 04:16:00,
2013-01-28 23:31:00,32.5,31.0,29.98,ENE,74,0.0,1.0,95,0.00,,,0.00,weatherlink.com 1.10,2013-01-29 04:31:00,
2013-01-28 23:46:00,32.5,31.0,29.98,ENE,74,0.0,0.0,95,0.00,,,0.00,weatherlink.com 1.10,2013-01-29 04:46:00,